Regional Weather Roundup
Issued by NWS

Home | Current Version | Previous Version | Graphics & Text | Print | Product List | Glossary On
Versions: 1 2 3 4 5 6 7 8 9 10 11 12 13 14 15 16 17 18 19 20 21 22 23 24 25 26 27 28 29 30 31 32 33 34 35 36 37 38 39 40 41 42 43 44 45 46 47 48 49 50
000
ASUS43 KBIS 230810
RWRND
NORTH DAKOTA REGIONAL WEATHER ROUNDUP
NATIONAL WEATHER SERVICE EASTERN NORTH DAKOTA/GRAND FORKS ND
300 AM CDT FRI JUN 23 2017

  NOTE: "FAIR" INDICATES FEW OR NO CLOUDS BELOW 12,000 FEET WITH NO
  SIGNIFICANT WEATHER AND/OR OBSTRUCTIONS TO VISIBILITY.

NDZ001>003-009>011-017-230900-
...NORTHWEST NORTH DAKOTA...

CITY           SKY/WX    TMP DP  RH WIND       PRES   REMARKS
WILLISTON      CLOUDY    52  46  80 W12       30.06R
MINOT          CLOUDY    55  48  77 W21G33    29.92R
MINOT AFB      CLOUDY    54  48  82 NW23G30   29.90R
$$

NDZ018>021-031>035-040>046-230900-
...SOUTHWEST NORTH DAKOTA...

CITY           SKY/WX    TMP DP  RH WIND       PRES   REMARKS
BISMARCK       CLOUDY    58  48  69 NW23G36   29.94S
DICKINSON      CLOUDY    50  45  83 NW20G29   30.03R
GARRISON         N/A     53  47  79 NW28G35   29.94S
HETTINGER      CLOUDY    53  44  71 W16G26    30.09R
$$

NDZ004>008-012>016-024-026-027-054-230900-
...NORTHEAST NORTH DAKOTA...

CITY           SKY/WX    TMP DP  RH WIND       PRES   REMARKS
GRAND FORKS    FAIR      60  53  77 W13       29.69S
GRAND FORKS AF MOCLDY    60  52  74 NW15G21   29.70S
DEVILS LAKE    NOT AVBL
$$

NDZ022-023-025-028>030-036>039-047>053-230900-
...SOUTHEAST NORTH DAKOTA...

CITY           SKY/WX    TMP DP  RH WIND       PRES   REMARKS
JAMESTOWN      MOCLDY    60  51  72 NW21G30   29.81R
FARGO          FAIR      56  47  71 W7        29.74S
WAHPETON       FAIR      55  43  62 W9        29.78S
$$




USA.gov is the U.S. government's official web portal to all federal, state and local government web resources and services.